STARLINK-3585, 51875

Orbit data source: Space-Track

STARLINK-3585, 51875 is a payload satellite owned by SpaceX/Seattle (US) in LEO that was launched on Thu, 03 Mar 2022 UTC via an FALCON 9 launch vehicle from the Air Force Eastern Test Range (AFETR). Payload-class satellites include a variety of spacecraft equipped with specific instruments for various scientific and technological missions. These include communications satellites like Starlink; space stations such as the ISS; scientific satellites like the Hubble; Earth observation satellites from companies like Planet Labs, Umbra, and HawkEye 360; GPS; miniature CubeSats for education and research; and military/defense satellites.

Loading next visibility...
Identifier
51875, 2022-022Z
Orbit
LEO
Country
Flag of USUS
Related business
Manufacturer
SpaceX/Seattle
Mission
Operational Commercial Communications
Bus & Motor
STARLINK, Unknown motor
Mass
297 kg wet, ~275 kg dry
Launch date (UTC)
2022-03-03 (4 years ago)
Launch vehicle
FALCON 9
Launch site
Air Force Eastern Test Range (AFETR)
Object type
Payload
Rocket body
Debris
Shape & HBR
Box + 1 Pan, 10.1 m
Radar Cross Section
13.562 m², Large (>1 m²)

Expand to show TLE details & history
Last TLE update: 2 days ago

TLE from 2 days ago
0 STARLINK-3585
1 51875U 22022Z   26171.26074661  .00000064  00000-0  22135-4 0  9990
2 51875  53.1611 268.4580 0001255  88.7019 271.4116 15.08834135238603
Epoch: 2026-06-20T06:15Z
TLE epoch observation values (Epoch: 2026-06-20T06:15:28.507Z)
Latitude
-0.00002°
Longitude
-93.88871°
Altitude
540.632 km
Speed
7.593 km/s
True Right ascension
17h 53m 49s
True Declination
0° 00' 00"
Sunlit
Object was in full shadow at epoch
Visualization orbit readout
Latitude
Unknown
Longitude
Unknown
Altitude
Unknown
Speed
Unknown
Apparent Right ascension
Unknown
Apparent Declination
Unknown
Sunlit
N/A
Visualization observer readout
Local Sidereal Time
21:32:15
Azimuth
Unknown
Elevation
Unknown
Doppler factor
Unknown
Orbital elements
Apogee altitude
540.883 km
Perigee altitude
539.147 km
Semi-major axis
6,918.152 km
Eccentricity
0.00013
Inclination
53.1611°
RAAN
268.458°
Arg. of periapsis
88.7019°
True anomaly
271.39722°
Mean anomaly
271.4116°
Eccentric anomaly
271.40441°
Mean motion
3.77188 °/min
Orbital period
95.44 mins
BSTAR
0.000022135
Loading maneuver chart data...
Computing Atmospheric mass density...
Loading historical data...
Loading historical data...
Loading historical data...
Loading historical data...
Loading historical data...
Loading historical data...
Loading historical data...

Documentation

Showing up to 5 results
|